Flag for Germany Weather past 2 weeks in Hofheim am Taunus, Hesse, Germany

Now
39 °F

Passing clouds.


Feels Like: 33 °F
Forecast: 35 / 40 °F
Wind: 9 mph from Northwest

Location: Wiesbaden Airport

Current Time: Jan 27, 2015 at 2:46:04 AM

Latest Report: Jan 27, 2015 at 1:58 AM


Visibility: N/A

Pressure: 30.12 "Hg

Humidity: 81%

Dew point: 34 °F

Location of Hofheim am TaunusLocation

Historic Weather in Hofheim am Taunus — Graph

°F

Hofheim am Taunus temperature yesterday

Maximum temperature yesterday: 39 °F (at 11:59 PM)
Minimum temperature yesterday: 34 °F (at 6:59 AM)
Average temperature yesterday: 35 °F

Past Weeks' High & Low Weather Summary

 TemperatureHumidityPressure
High55 °F (Jan 13, 2:58 PM)100% (Jan 16, 12:59 PM)30.46 "Hg (Jan 16, 12:59 PM)
Low27 °F (Jan 24, 1:58 AM)47% (Jan 13, 1:58 PM)29.63 "Hg (Jan 15, 8:01 PM)
Average37 °F88%30.03 "Hg
* Reported Jan 12 12:58 AM — Jan 27 12:58 AM, Hofheim am Taunus, Weather by CustomWeather, © 2014

Note: Actual official high and low records may vary slightly from our data, if they occured in-between our weather recording intervals... More about our weather records

Advertising

Hofheim am Taunus weather history for previous 24 hours

 ConditionsComfort  
Time TempWeatherWind HumidityBarometerVisibility
12:58 AM
Jan 27
39 °FPassing clouds.12 mph85%30.11 "HgN/A
11:59 PM
Jan 26
39 °FPassing clouds.12 mph87%30.09 "HgN/A
10:58 PM39 °FDrizzle. Mostly cloudy.7 mph100%30.09 "HgN/A
9:58 PM37 °FOvercast.3 mph100%30.09 "HgN/A
9:04 PM36 °FOvercast.9 mph100%30.07 "HgN/A
9:01 PM36 °FOvercast.8 mph100%30.07 "HgN/A
8:01 PM36 °FLight rain. Fog.3 mph100%30.08 "Hg5 mi
7:02 PM36 °FLow clouds.6 mph100%30.08 "HgN/A
5:59 PM34 °FLight rain. Fog.5 mph100%30.09 "Hg5 mi
5:01 PM34 °FLow clouds.8 mph100%30.09 "HgN/A
3:58 PM34 °FLight snow. Low clouds.6 mph100%30.15 "HgN/A
2:58 PM35 °FLight snow. Mostly cloudy.9 mph98%30.16 "HgN/A
1:58 PM36 °FLight rain. Low clouds.9 mph99%30.19 "HgN/A
1:01 PM36 °FLight rain. Low clouds.9 mph100%30.19 "HgN/A
12:58 PM36 °FLight rain. Low clouds.9 mph100%30.22 "HgN/A
11:58 AM36 °FLight rain. Low clouds.8 mph100%30.25 "HgN/A
10:58 AM34 °FLight rain. Fog.7 mph100%30.28 "Hg6 mi
9:58 AM34 °FLight rain. Fog.8 mph100%30.29 "Hg5 mi
9:00 AM34 °FLight rain. Fog.8 mph100%30.27 "Hg4 mi
8:58 AM35 °FFog.8 mph99%30.30 "Hg5 mi
8:01 AM34 °FMostly cloudy.8 mph100%30.28 "HgN/A
7:58 AM34 °FMostly cloudy.7 mph99%30.31 "HgN/A
6:59 AM34 °FFog.5 mph100%30.29 "Hg5 mi
6:58 AM34 °FFog.6 mph100%30.32 "Hg5 mi
5:58 AM35 °FLow clouds.6 mph99%30.32 "HgN/A
4:58 AM36 °FLight rain. Fog.2 mph93%30.34 "Hg6 mi
3:58 AM35 °FLow clouds.5 mph99%30.34 "HgN/A
3:04 AM36 °FLight rain. Low clouds.2 mph93%30.34 "HgN/A
2:58 AM36 °FLow clouds.3 mph93%30.37 "HgN/A
Weather by CustomWeather, © 2014

See weather overviewHow to use our weather pages